DW4028 Weather Reports


time (UTC)temp
C
wind
direction
speed
KPH
gust
KPH
rain 1hr
cm
rain 24hr
cm
rain mn
cm
humidity
%
barometer
mb
20260503024526 8 169 0.0 3.2 0.00 0.03 0.03 89 1010.4
20260503023009 8 169 0.0 0.0 0.00 0.03 0.03 89 1010.5
20260503021519 8 168 0.0 0.0 0.00 0.03 0.03 89 1010.5
20260503020009 8 171 0.0 0.0 0.00 0.03 0.03 89 1010.6
20260503014514 8 169 0.0 0.0 0.00 0.03 0.03 88 1010.8
20260503013006 8 168 0.0 3.2 0.00 0.03 0.03 88 1010.8
20260503011512 9 168 0.0 1.6 0.00 0.03 0.03 88 1010.8
20260503010019 9 136 0.0 3.2 0.00 0.03 0.03 87 1010.7
20260503004510 9 165 0.0 3.2 0.00 0.03 0.03 87 1010.6
20260503003016 9 150 1.6 3.2 0.00 0.03 0.03 86 1010.5
20260503001521 9 142 1.6 3.2 0.00 0.03 0.03 86 1010.4
20260503000010 9 143 0.0 4.8 0.00 0.03 0.03 85 1010.5
20260502234527 9 175 0.0 3.2 0.00 0.03 0.03 85 1010.5
20260502233025 10 144 1.6 6.4 0.00 0.03 0.03 84 1010.6
20260502231512 10 181 0.0 3.2 0.00 0.03 0.03 84 1010.5
20260502230029 10 139 1.6 6.4 0.00 0.03 0.03 84 1010.6
20260502224507 10 143 3.2 4.8 0.00 0.03 0.03 84 1010.5
20260502223020 10 148 3.2 4.8 0.00 0.03 0.03 84 1010.4
20260502221521 10 190 0.0 8.0 0.00 0.03 0.03 84 1010.4
20260502220011 10 169 1.6 4.8 0.00 0.03 0.03 83 1010.4
20260502214523 10 173 0.0 4.8 0.00 0.03 0.03 83 1010.4
20260502213026 10 221 3.2 9.7 0.00 0.03 0.03 82 1010.4
20260502211517 10 130 4.8 11.3 0.00 0.03 0.03 81 1010.4
20260502210021 10 170 4.8 11.3 0.00 0.03 0.03 81 1010.4
20260502204512 10 166 6.4 14.5 0.00 0.03 0.03 80 1010.4
20260502203021 10 178 4.8 17.7 0.00 0.03 0.03 80 1010.5
20260502201504 10 159 8.0 16.1 0.00 0.03 0.03 81 1010.7
20260502200010 10 197 6.4 19.3 0.00 0.03 0.03 80 1010.6
20260502194504 11 171 8.0 24.1 0.00 0.03 0.03 80 1010.9
20260502193010 11 338 8.0 16.1 0.00 0.03 0.03 80 1011.0
20260502191513 10 233 9.7 19.3 0.00 0.03 0.03 78 1011.3
20260502190009 10 193 3.2 16.1 0.03 0.03 0.03 79 1011.5
20260502184524 11 230 3.2 19.3 0.03 0.03 0.03 81 1011.4
20260502183010 11 192 4.8 19.3 0.03 0.03 0.03 82 1011.2
20260502181505 10 218 1.6 3.2 0.03 0.03 0.03 84 1011.5
20260502163024 13 360 4.8 12.9 0.00 0.00 0.00 66 1011.6
20260502161510 13 38 3.2 14.5 0.00 0.00 0.00 68 1011.6
20260502151503 12 104 3.2 9.7 0.00 0.00 0.00 72 1012.4
20260502123021 10 198 4.8 11.3 0.00 0.00 0.00 77 1012.8
20260502121515 10 360 3.2 17.7 0.00 0.00 0.00 75 1012.7
20260502114517 10 84 8.0 17.7 0.00 0.00 0.00 75 1012.1
20260502113019 8 197 6.4 9.7 0.00 0.00 0.00 78 1011.9
20260502111515 8 225 3.2 8.0 0.00 0.00 0.00 78 1012.1
20260502110014 8 193 0.0 6.4 0.00 0.00 0.00 78 1012.2
20260502104523 8 217 1.6 4.8 0.00 0.00 0.00 78 1011.9
20260502103009 8 190 0.0 4.8 0.00 0.00 0.00 78 1011.8
20260502101534 8 150 4.8 8.0 0.00 0.00 0.00 78 1011.8
20260502091528 7 195 0.0 3.2 0.00 0.00 0.00 77 1011.7
20260502071514 7 178 0.0 3.2 0.00 0.00 0.00 74 1011.4
20260502070016 7 180 0.0 3.2 0.00 0.00 0.00 73 1011.5
20260502064515 8 171 0.0 6.4 0.00 0.00 0.00 72 1011.5
20260502063025 8 167 0.0 3.2 0.00 0.00 0.00 74 1011.7
20260502061517 7 151 0.0 3.2 0.00 0.00 0.00 74 1011.8
20260502060018 7 150 1.6 1.6 0.00 0.00 0.00 75 1011.8
20260502054515 7 153 0.0 3.2 0.00 0.00 0.00 73 1011.8
20260502053022 7 152 0.0 0.0 0.00 0.00 0.00 72 1011.9
20260502051528 8 155 0.0 3.2 0.00 0.00 0.00 70 1011.8
20260502050028 8 158 1.6 3.2 0.00 0.00 0.00 68 1012.0
20260502044524 9 165 0.0 3.2 0.00 0.00 0.00 66 1012.0
20260502043024 10 211 0.0 6.4 0.00 0.00 0.00 66 1012.0
20260502041529 9 162 0.0 4.8 0.00 0.00 0.00 65 1012.1
20260502040025 9 146 1.6 4.8 0.00 0.00 0.00 64 1012.1
20260502034517 9 173 0.0 8.0 0.00 0.00 0.00 62 1012.1
20260502033027 10 206 3.2 6.4 0.00 0.00 0.00 59 1012.1
20260502031526 10 186 0.0 4.8 0.00 0.00 0.00 58 1012.0
20260502030020 10 215 0.0 6.4 0.00 0.00 0.00 57 1012.0